Starlink 32276

operational
NORAD ID: 60944 Int'l Des: 2024-155 Owner: SPXS Country: US Constellation: starlink
LEOCIRCULAR

关于 Starlink 32276

正在加载描述...

实时位置

正在加载3D地球...

即将过境

高度历史

Altitude vs Time

uPlot chart will show altitude changes over time

两行轨道根数

1 60944U 24155W 25259.59708109 -.00001705 00000-0 -45479-4 0 9990
2 60944 53.1602 218.5097 0001110 101.7289 258.3836 15.30187491 59733
Epoch: Sep 16, 2025 • Age: 18 hours

当前状态

高度 475.6 km
速度 7.63 km/s
星下点 24.33°N, 104.49°W
发射日期 Aug 31, 2024
运行时间 1 years
类型 internet

技术详情

分类 Payload
质量 730.00 kg
干质量 700.00 kg
总质量 730.00 kg
长度 0.30 m
直径 4.10 m
跨度 29.00 m
形状 Box + pan
制造商 SPXS
平台类型 Starlink V2M
阶段状态 In Orbit
所有者/国家 SPXS/US

大型星座

Loading constellations...